This is the latest recevied weather packets stored in our database for station/object EA7BW-10. If no packets are shown the sender has not sent any weather packets the latest 10 day(s).
| Time | Temp. | Humidity | Pressure | Rain* | Wind** | Luminosity | Snow |
|---|---|---|---|---|---|---|---|
| 1778119280 | 19.44° C | 38% | 1004 hPa | - | - | - | - |
| 1778118080 | 19.44° C | 38% | 1004.1 hPa | - | - | - | - |
| 1778116880 | 20° C | 37% | 1004.2 hPa | - | - | - | - |
| 1778115680 | 20° C | 36% | 1004.2 hPa | - | - | - | - |
| 1778114482 | 20° C | 35% | 1004.3 hPa | - | - | - | - |
| 1778113280 | 20° C | 35% | 1004.4 hPa | - | - | - | - |
| 1778112078 | 20.56° C | 34% | 1004.5 hPa | - | - | - | - |
| 1778110877 | 20.56° C | 33% | 1004.5 hPa | - | - | - | - |
| 1778109677 | 20.56° C | 33% | 1004.2 hPa | - | - | - | - |
| 1778108477 | 21.11° C | 32% | 1004.3 hPa | - | - | - | - |
| 1778107277 | 21.67° C | 31% | 1004.1 hPa | - | - | - | - |
| 1778106077 | 22.22° C | 30% | 1003.9 hPa | - | - | - | - |
| 1778104877 | 22.78° C | 29% | 1003.8 hPa | - | - | - | - |
| 1778103677 | 23.33° C | 29% | 1003.7 hPa | - | - | - | - |
| 1778102477 | 23.33° C | 28% | 1003.5 hPa | - | - | - | - |
| 1778101277 | 23.89° C | 27% | 1003.3 hPa | - | - | - | - |
| 1778100077 | 24.44° C | 27% | 1003.1 hPa | - | - | - | - |
| 1778098877 | 25° C | 26% | 1002.8 hPa | - | - | - | - |
| 1778097676 | 25.56° C | 26% | 1002.6 hPa | - | - | - | - |
| 1778096476 | 26.11° C | 25% | 1002.2 hPa | - | - | - | - |
| 1778095276 | 27.78° C | 24% | 1002 hPa | - | - | - | - |
| 1778094076 | 29.44° C | 23% | 1002 hPa | - | - | - | - |
| 1778092876 | 30.56° C | 22% | 1001.8 hPa | - | - | - | - |
| 1778091676 | 30.56° C | 22% | 1001.7 hPa | - | - | - | - |
| 1778090476 | 31.67° C | 22% | 1001.8 hPa | - | - | - | - |
* Rain since midnight (hover to see other rain measurements)
** Current wind speed in m/s (hover to see current wind gust speed)